�N����,����,�~����,�C��,���x,�C��,����,���ϕ���,�ő�u�ԕ���,�ő厞����,���˗�,�I�_���x,�n�����x,�ő啗���N��,DTYPE
"22/01/27","00:10",0.0,5.7,85.5,1015.9,308.5,2.5,3.3,329.5,0.00,3.5,6.7,"00:09:28",1
"22/01/27","00:20",0.0,5.7,85.8,1015.9,310.6,2.1,3.2,325.7,0.00,3.6,6.5,"00:12:48",1
"22/01/27","00:30",0.0,5.6,86.0,1015.6,322.8,2.0,2.5,329.3,0.00,3.5,6.7,"00:25:36",1
"22/01/27","00:40",0.0,5.5,86.1,1015.4,339.8,1.1,2.2,329.6,0.00,3.4,6.4,"00:31:28",1
"22/01/27","00:50",0.0,5.0,86.3,1015.6,319.5,1.3,2.2,318.2,0.00,2.9,6.6,"00:46:24",1
"22/01/27","01:00",0.0,4.6,87.1,1015.2,325.5,2.3,4.2,329.9,0.00,2.7,6.7,"00:59:04",1
"22/01/27","01:10",0.0,5.0,87.4,1015.2,309.2,3.5,5.6,325.3,0.00,3.1,6.5,"01:07:20",1
"22/01/27","01:20",0.0,5.1,87.7,1015.6,313.3,3.2,5.2,313.8,0.00,3.3,6.4,"01:18:48",1
"22/01/27","01:30",0.0,5.2,87.8,1015.4,325.8,3.2,5.0,333.9,0.00,3.4,6.4,"01:28:08",1
"22/01/27","01:40",0.0,5.2,87.8,1015.4,324.0,3.7,4.7,317.4,0.00,3.4,6.6,"01:36:00",1
"22/01/27","01:50",0.0,5.2,88.0,1015.2,324.8,3.7,6.2,334.9,0.00,3.4,6.4,"01:49:44",1
"22/01/27","02:00",0.0,5.1,88.0,1015.6,325.5,3.2,4.4,319.7,0.00,3.3,6.4,"01:56:08",1
"22/01/27","02:10",0.0,5.1,88.2,1015.6,327.6,3.2,4.3,331.4,0.00,3.4,6.3,"02:05:56",1
"22/01/27","02:20",0.0,5.2,88.1,1015.9,323.6,2.8,4.0,334.4,0.00,3.4,6.6,"02:10:56",1
"22/01/27","02:30",0.0,5.2,88.1,1015.2,320.6,3.1,4.2,330.1,0.00,3.4,6.3,"02:25:44",1
"22/01/27","02:40",0.0,4.9,88.0,1015.4,325.7,2.5,4.3,339.4,0.00,3.1,6.6,"02:30:16",1
"22/01/27","02:50",0.0,4.7,88.1,1014.9,329.0,2.1,2.8,334.5,0.00,2.9,6.4,"02:47:20",1
"22/01/27","03:00",0.0,4.6,88.5,1015.2,325.0,2.3,3.9,330.2,0.00,2.9,6.2,"02:59:28",1
"22/01/27","03:10",0.0,4.8,88.6,1015.2,325.9,2.5,3.6,322.5,0.00,3.1,6.2,"03:04:32",1
"22/01/27","03:20",0.0,4.6,88.8,1015.4,326.8,2.5,3.5,333.5,0.00,3.0,6.3,"03:11:28",1
"22/01/27","03:30",0.0,4.7,89.0,1015.4,325.2,2.5,4.3,335.4,0.00,3.1,6.2,"03:25:52",1
"22/01/27","03:40",0.0,4.8,89.1,1015.6,326.5,3.0,4.1,315.6,0.00,3.2,6.3,"03:33:04",1
"22/01/27","03:50",0.0,4.9,89.2,1015.4,323.6,2.7,4.4,323.6,0.00,3.3,6.4,"03:40:16",1
"22/01/27","04:00",0.0,4.9,89.2,1014.9,320.1,2.5,3.5,324.9,0.00,3.3,6.4,"03:56:40",1
"22/01/27","04:10",0.0,4.9,89.1,1014.9,315.6,2.1,2.9,304.3,0.00,3.3,6.2,"04:00:08",1
"22/01/27","04:20",0.0,4.8,89.2,1015.2,327.3,1.6,2.4,332.1,0.00,3.2,6.2,"04:18:56",1
"22/01/27","04:30",0.0,4.8,89.3,1015.2,319.2,2.1,3.1,318.9,0.00,3.2,6.3,"04:26:56",1
"22/01/27","04:40",0.0,4.8,89.2,1015.4,326.4,1.8,2.6,323.7,0.00,3.2,6.0,"04:30:24",1
"22/01/27","04:50",0.0,4.7,89.2,1015.4,316.1,1.2,1.8,304.9,0.00,3.1,6.2,"04:42:08",1
"22/01/27","05:00",0.0,4.5,89.3,1015.2,318.8,1.3,2.2,324.7,0.00,2.9,6.2,"04:53:20",1
"22/01/27","05:10",0.0,4.3,89.4,1015.2,321.5,1.2,2.2,320.1,0.00,2.8,6.2,"05:00:32",1
"22/01/27","05:20",0.0,4.1,89.5,1015.2,317.4,1.2,2.5,335.0,0.00,2.6,6.2,"05:12:00",1
"22/01/27","05:30",0.0,4.0,89.7,1015.4,333.6,1.3,3.1,324.6,0.00,2.5,6.2,"05:28:56",1
"22/01/27","05:40",0.0,3.5,89.9,1015.2,302.1,1.3,2.1,316.0,0.00,2.0,6.1,"05:30:40",1
"22/01/27","05:50",0.0,3.3,90.3,1015.2,324.7,1.5,2.4,337.6,0.00,1.9,6.1,"05:46:16",1
"22/01/27","06:00",0.0,3.1,90.7,1015.6,295.3,0.8,2.5,300.7,0.00,1.8,6.2,"05:51:20",1
"22/01/27","06:10",0.0,3.4,90.9,1015.6,347.9,0.3,1.1,316.4,0.00,2.1,6.0,"06:06:56",1
"22/01/27","06:20",0.0,3.5,91.1,1015.2,342.2,0.6,2.1,320.6,0.00,2.2,6.0,"06:18:58",1
"22/01/27","06:30",0.0,3.3,91.3,1015.4,306.8,1.6,2.4,325.4,0.00,2.1,6.2,"06:24:16",1
"22/01/27","06:40",0.0,3.0,91.6,1015.6,302.6,1.1,2.5,319.0,0.00,1.8,6.1,"06:33:04",1
"22/01/27","06:50",0.0,2.9,91.8,1015.6,312.0,1.3,2.6,326.3,0.00,1.7,6.0,"06:44:24",1
"22/01/27","07:00",0.0,3.1,92.2,1015.6,320.9,1.6,2.6,322.1,0.00,2.0,6.2,"06:57:36",1
"22/01/27","07:10",0.0,3.4,92.3,1015.9,320.8,1.7,2.7,309.9,0.00,2.3,6.0,"07:09:52",1
"22/01/27","07:20",0.0,3.7,92.4,1016.1,332.6,1.6,3.1,323.6,0.00,2.6,6.1,"07:13:36",1
"22/01/27","07:30",0.0,3.9,92.5,1016.4,329.5,1.5,2.7,336.2,0.00,2.8,5.9,"07:25:20",1
"22/01/27","07:40",0.0,4.0,92.5,1016.4,304.4,0.7,1.9,315.7,0.00,2.9,5.9,"07:37:36",1
"22/01/27","07:50",0.0,4.1,92.6,1016.1,303.5,1.0,1.8,294.8,0.00,3.1,5.8,"07:43:12",1
"22/01/27","08:00",0.0,4.3,92.7,1016.1,313.1,1.3,2.2,307.1,0.00,3.3,6.2,"07:56:48",1
"22/01/27","08:10",0.0,4.3,92.6,1016.4,322.7,1.6,3.2,334.7,0.00,3.2,5.9,"08:07:36",1
"22/01/27","08:20",0.0,4.3,92.6,1016.4,328.6,2.3,3.4,329.9,0.00,3.2,5.8,"08:12:56",1
"22/01/27","08:30",0.0,4.3,92.5,1016.4,325.9,2.2,4.7,342.1,0.00,3.2,5.9,"08:20:08",1
"22/01/27","08:40",0.0,4.4,92.4,1016.4,323.7,1.8,2.9,329.1,0.01,3.3,5.8,"08:34:24",1
"22/01/27","08:50",0.0,4.7,92.3,1016.1,311.6,2.1,2.8,322.4,0.03,3.6,5.9,"08:49:36",1
"22/01/27","09:00",0.0,5.1,92.1,1016.6,316.0,1.7,2.6,322.9,0.05,4.0,5.8,"08:52:00",1
"22/01/27","09:10",0.0,5.4,91.7,1016.6,326.9,1.3,2.6,327.3,0.06,4.2,5.9,"09:01:04",1
"22/01/27","09:20",0.0,5.9,91.5,1016.4,331.6,1.5,2.6,338.9,0.13,4.7,6.0,"09:17:52",1
"22/01/27","09:30",0.0,6.5,90.0,1016.6,324.5,2.5,4.7,324.0,0.15,5.0,6.0,"09:29:28",1
"22/01/27","09:40",0.0,6.9,88.9,1016.8,306.2,2.8,4.2,316.7,0.21,5.2,5.9,"09:34:34",1
"22/01/27","09:50",0.0,7.5,86.3,1016.8,296.3,2.2,4.5,316.7,0.24,5.4,5.9,"09:48:46",1
"22/01/27","10:00",0.0,7.9,83.1,1017.1,332.9,2.7,3.9,340.3,0.26,5.3,6.0,"09:56:08",1
"22/01/27","10:10",0.0,8.5,79.0,1017.1,330.3,3.5,6.6,323.8,0.35,5.1,5.9,"10:02:40",1
"22/01/27","10:20",0.0,8.1,75.4,1016.8,340.0,3.9,7.2,341.1,0.17,4.1,5.9,"10:10:40",1
"22/01/27","10:30",0.0,7.7,74.4,1016.6,334.5,4.0,6.7,323.5,0.14,3.5,6.0,"10:25:14",1
"22/01/27","10:40",0.0,8.1,74.5,1016.4,335.4,2.7,5.1,339.6,0.22,3.9,6.2,"10:35:44",1
"22/01/27","10:50",0.0,8.9,73.1,1017.1,327.8,3.0,6.7,341.4,0.38,4.4,6.3,"10:49:54",1
"22/01/27","11:00",0.0,8.3,71.9,1017.1,331.7,3.9,6.2,338.7,0.19,3.6,6.0,"10:56:40",1
"22/01/27","11:10",0.0,8.1,71.9,1016.6,349.0,2.8,4.7,346.8,0.13,3.4,6.2,"11:01:44",1
"22/01/27","11:20",0.0,8.3,72.4,1016.6,341.4,2.8,5.1,350.6,0.19,3.7,6.2,"11:10:08",1
"22/01/27","11:30",0.0,8.3,71.9,1016.4,349.8,2.7,5.8,330.4,0.21,3.6,6.3,"11:27:20",1
"22/01/27","11:40",0.0,9.1,71.5,1015.9,337.8,2.3,5.6,340.1,0.38,4.3,6.3,"11:35:04",1
"22/01/27","11:50",0.0,8.9,69.8,1015.9,353.5,2.1,4.9,327.3,0.24,3.7,6.3,"11:43:28",1
"22/01/27","12:00",0.0,8.5,70.1,1015.9,338.9,3.2,6.8,310.9,0.19,3.4,6.3,"11:51:20",1
"22/01/27","12:10",0.0,8.6,70.5,1016.1,342.7,2.7,7.0,342.3,0.22,3.6,6.4,"12:00:32",1
"22/01/27","12:20",0.0,8.5,70.4,1015.9,334.8,3.7,6.0,340.8,0.24,3.5,6.4,"12:12:08",1
"22/01/27","12:30",0.0,8.6,70.4,1015.4,333.8,4.0,6.3,314.5,0.27,3.6,6.6,"12:21:44",1
"22/01/27","12:40",0.0,8.4,70.5,1014.9,344.1,2.5,5.0,348.1,0.15,3.4,6.4,"12:38:56",1
"22/01/27","12:50",0.0,9.1,70.4,1014.7,341.1,2.3,5.1,332.7,0.33,4.0,6.6,"12:43:28",1
"22/01/27","13:00",0.0,8.7,68.6,1015.2,345.4,3.1,9.8,333.9,0.23,3.3,6.8,"12:55:52",1
"22/01/27","13:10",0.0,8.6,69.0,1014.7,353.2,2.6,5.1,4.6,0.17,3.3,6.8,"13:01:28",1
"22/01/27","13:20",0.0,7.9,70.0,1014.7,357.0,2.8,5.1,323.6,0.10,2.8,6.7,"13:17:28",1
"22/01/27","13:30",0.0,7.7,70.9,1014.9,352.8,2.8,5.0,348.8,0.12,2.8,7.0,"13:27:28",1
"22/01/27","13:40",0.0,7.9,71.0,1014.5,344.9,3.4,5.5,340.2,0.18,3.0,7.0,"13:38:32",1
"22/01/27","13:50",0.0,8.9,69.8,1014.2,345.5,3.7,7.9,348.2,0.37,3.7,7.1,"13:41:04",1
"22/01/27","14:00",0.0,8.6,66.9,1014.2,341.6,3.5,6.8,338.2,0.22,2.8,6.9,"13:51:52",1
"22/01/27","14:10",0.0,8.8,66.9,1014.2,329.1,3.4,6.0,321.9,0.28,3.0,7.1,"14:05:36",1
"22/01/27","14:20",0.0,8.5,66.5,1014.7,334.7,4.2,9.0,348.4,0.18,2.7,6.8,"14:14:16",1
"22/01/27","14:30",0.0,8.2,67.3,1014.2,349.2,3.0,6.5,351.9,0.10,2.5,7.1,"14:25:44",1
"22/01/27","14:40",0.0,7.8,68.6,1014.2,356.3,3.4,6.5,349.4,0.10,2.4,7.2,"14:31:20",1
"22/01/27","14:50",0.0,7.7,69.1,1014.0,0.0,3.0,5.5,17.3,0.12,2.4,7.0,"14:47:36",1
"22/01/27","15:00",0.0,7.7,69.7,1014.0,354.0,2.3,4.1,37.5,0.10,2.6,7.1,"14:56:00",1
"22/01/27","15:10",0.0,7.8,70.4,1014.2,351.1,2.5,5.1,341.3,0.12,2.8,7.2,"15:04:48",1
"22/01/27","15:20",0.0,8.1,69.0,1014.0,336.8,3.5,6.3,333.8,0.18,2.8,7.0,"15:16:18",1
"22/01/27","15:30",0.0,7.5,68.7,1014.2,357.8,3.2,7.9,333.1,0.06,2.2,7.2,"15:22:18",1
"22/01/27","15:40",0.0,7.4,69.8,1014.2,339.1,3.4,6.7,337.7,0.07,2.3,7.0,"15:31:44",1
"22/01/27","15:50",0.0,7.4,70.1,1014.2,335.5,3.6,6.3,331.4,0.07,2.4,7.2,"15:42:40",1
"22/01/27","16:00",0.0,7.6,69.5,1013.8,331.0,3.1,5.1,309.2,0.08,2.4,7.2,"15:51:20",1
"22/01/27","16:10",0.0,7.6,69.2,1014.0,349.4,2.7,5.5,345.1,0.07,2.4,7.1,"16:00:32",1
"22/01/27","16:20",0.0,7.3,69.4,1014.0,346.2,2.6,5.1,340.0,0.04,2.1,7.3,"16:17:28",1
"22/01/27","16:30",0.0,7.3,69.7,1014.0,353.8,2.0,3.3,354.2,0.05,2.2,7.0,"16:22:08",1
"22/01/27","16:40",0.0,7.7,69.7,1014.5,347.3,2.2,4.4,341.5,0.08,2.6,7.4,"16:35:12",1
"22/01/27","16:50",0.0,7.8,68.9,1014.0,358.7,2.0,3.7,31.0,0.06,2.5,7.3,"16:42:48",1
"22/01/27","17:00",0.0,7.4,68.5,1014.2,355.2,2.6,4.8,358.4,0.02,2.0,7.2,"16:56:56",1
"22/01/27","17:10",0.0,6.9,69.4,1014.2,344.2,2.7,5.2,316.9,0.00,1.7,7.4,"17:08:48",1
"22/01/27","17:20",0.0,6.4,71.4,1014.5,332.0,3.0,6.7,325.9,0.00,1.6,7.2,"17:16:00",1
"22/01/27","17:30",0.0,6.1,72.7,1014.5,336.2,2.8,5.8,338.0,0.00,1.6,7.2,"17:22:40",1
"22/01/27","17:40",0.0,5.8,73.9,1014.2,334.4,2.7,5.1,340.7,0.00,1.6,7.3,"17:33:28",1
"22/01/27","17:50",0.0,5.4,75.0,1014.5,330.5,2.2,3.6,337.6,0.00,1.4,7.2,"17:40:08",1
"22/01/27","18:00",0.0,5.1,76.0,1014.0,334.7,2.1,3.4,335.7,0.00,1.3,7.5,"17:57:12",1
"22/01/27","18:10",0.0,4.7,77.2,1014.5,337.4,1.8,2.9,323.6,0.00,1.1,7.2,"18:09:20",1
"22/01/27","18:20",0.0,4.5,78.6,1014.5,330.5,2.3,3.7,323.3,0.00,1.1,7.3,"18:13:20",1
"22/01/27","18:30",0.0,4.5,79.6,1014.5,330.5,2.0,2.9,330.7,0.00,1.3,7.2,"18:21:12",1
"22/01/27","18:40",0.0,4.3,80.3,1014.7,324.8,1.8,3.1,331.5,0.00,1.3,7.2,"18:36:24",1
"22/01/27","18:50",0.0,4.0,81.0,1014.7,322.2,1.8,2.5,332.5,0.00,1.1,7.1,"18:46:56",1
"22/01/27","19:00",0.0,3.6,81.9,1014.5,319.4,2.1,2.7,314.8,0.00,0.8,6.9,"18:56:32",1
"22/01/27","19:10",0.0,3.3,82.8,1014.5,321.6,1.8,2.6,315.0,0.00,0.7,7.1,"19:05:28",1
"22/01/27","19:20",0.0,3.1,84.0,1014.0,322.0,2.6,3.7,323.4,0.00,0.7,6.9,"19:19:44",1
"22/01/27","19:30",0.0,3.2,85.0,1014.5,323.8,3.5,4.8,342.4,0.00,1.0,7.0,"19:23:04",1
"22/01/27","19:40",0.0,3.1,85.9,1013.8,321.8,3.1,4.5,318.5,0.00,1.0,7.0,"19:37:28",1
"22/01/27","19:50",0.0,3.1,86.5,1013.8,317.7,3.6,4.8,325.3,0.00,1.1,6.9,"19:40:32",1
"22/01/27","20:00",0.0,3.0,87.1,1013.8,319.3,3.2,4.4,317.0,0.00,1.1,7.1,"19:59:04",1
"22/01/27","20:10",0.0,2.8,87.5,1013.8,313.2,2.6,3.9,312.5,0.00,1.0,6.7,"20:01:04",1
"22/01/27","20:20",0.0,2.6,88.0,1013.5,309.6,3.1,4.4,321.4,0.00,0.9,7.0,"20:11:20",1
"22/01/27","20:30",0.0,2.5,88.4,1013.8,317.7,3.4,4.3,327.0,0.00,0.8,7.0,"20:29:28",1
"22/01/27","20:40",0.0,2.4,88.7,1013.5,317.7,3.4,4.5,321.1,0.00,0.8,6.8,"20:31:46",1
"22/01/27","20:50",0.0,2.3,89.1,1013.3,312.0,3.4,4.8,327.9,0.00,0.7,6.6,"20:45:38",1
"22/01/27","21:00",0.0,2.3,89.4,1013.5,318.9,3.9,5.1,334.7,0.00,0.8,6.8,"20:56:42",1
"22/01/27","21:10",0.0,2.2,89.7,1013.5,322.1,3.1,4.7,324.1,0.00,0.7,6.7,"21:08:34",1
"22/01/27","21:20",0.0,1.9,89.8,1013.5,317.5,2.3,3.6,316.1,0.00,0.4,6.7,"21:11:20",1
"22/01/27","21:30",0.0,1.1,90.1,1013.8,319.5,2.3,2.8,311.2,0.00,-0.3,6.6,"21:24:08",1
"22/01/27","21:40",0.0,0.6,90.6,1013.3,321.9,1.8,2.4,314.3,0.00,-0.7,6.7,"21:34:32",1
"22/01/27","21:50",0.0,1.1,91.0,1013.3,324.0,1.8,3.9,323.3,0.00,-0.2,6.6,"21:43:28",1
"22/01/27","22:00",0.0,0.9,91.1,1013.3,302.8,1.3,2.2,334.4,0.00,-0.3,6.6,"21:52:08",1
"22/01/27","22:10",0.0,0.5,91.5,1012.8,316.5,1.3,2.1,322.1,0.00,-0.7,6.5,"22:07:52",1
"22/01/27","22:20",0.0,0.5,91.9,1013.0,336.1,2.0,2.9,334.6,0.00,-0.6,6.3,"22:16:32",1
"22/01/27","22:30",0.0,0.3,92.1,1013.5,312.4,1.5,1.9,324.5,0.00,-0.8,6.4,"22:21:12",1
"22/01/27","22:40",0.0,0.2,92.4,1013.3,325.2,0.7,1.2,316.7,0.00,-0.8,6.4,"22:37:04",1
"22/01/27","22:50",0.0,0.0,92.7,1013.0,327.5,1.3,2.2,307.7,0.00,-1.0,6.2,"22:45:04",1
"22/01/27","23:00",0.0,-0.4,93.0,1013.0,320.1,1.2,2.4,333.0,0.00,-1.4,6.5,"22:50:48",1
"22/01/27","23:10",0.0,-0.4,93.3,1013.0,295.4,0.6,1.6,334.5,0.00,-1.3,6.3,"23:00:48",1
"22/01/27","23:20",0.0,-0.3,93.5,1013.0,315.4,0.7,1.7,324.5,0.00,-1.2,6.2,"23:16:32",1
"22/01/27","23:30",0.0,-0.2,93.6,1012.8,326.6,1.0,1.4,323.6,0.00,-1.1,6.4,"23:21:36",1
"22/01/27","23:40",0.0,-0.2,93.8,1012.6,280.4,0.6,1.2,304.3,0.00,-1.0,6.1,"23:35:12",1
"22/01/27","23:50",0.0,-0.3,93.9,1012.8,306.1,1.3,1.7,328.9,0.00,-1.1,6.3,"23:48:56",1
"22/01/27","24:00",0.0,-0.4,94.1,1012.6,328.7,1.3,2.4,332.6,0.00,-1.2,6.1,"23:55:44",1
